FW8758 Weather Reports


Display with metric or nautical units.
time (UTC)temp
F
wind
direction
speed
MPH
gust
MPH
rain 1hr
in
rain 24hr
in
rain mn
in
humidity
%
barometer
mb
20260506003036 60 244 4.0 12.0 0.00 0.16 0.16 64 1003.1
20260506001535 60 275 4.0 11.0 0.00 0.16 0.16 64 1003.2
20260506000034 61 265 3.0 15.0 0.00 0.16 0.16 64 1003.2
20260505234535 61 261 3.0 8.0 0.00 0.16 0.16 63 1002.7
20260505233045 61 235 3.0 10.0 0.00 0.16 0.16 62 1002.5
20260505231536 62 212 5.0 9.0 0.00 0.16 0.16 62 1002.0
20260505230040 62 217 5.0 15.0 0.00 0.16 0.16 61 1002.1
20260505224541 62 268 9.0 17.0 0.00 0.16 0.16 61 1001.8
20260505223032 62 249 5.0 13.0 0.00 0.16 0.16 60 1001.3
20260505221530 62 277 5.0 14.0 0.00 0.16 0.16 66 1001.2
20260505220036 62 262 3.0 9.0 0.00 0.16 0.16 72 1000.9
20260505214534 62 247 2.0 9.0 0.00 0.16 0.16 74 1000.7
20260505213031 62 246 3.0 8.0 0.00 0.16 0.16 75 1000.7
20260505211536 62 248 4.0 12.0 0.04 0.16 0.16 76 1000.2
20260505210036 62 279 3.0 11.0 0.04 0.16 0.16 77 999.9
20260505204535 62 301 3.0 10.0 0.04 0.16 0.16 78 999.6
20260505203037 63 273 3.0 19.0 0.03 0.15 0.15 73 999.6
20260505201548 68 255 8.0 28.0 0.00 0.11 0.11 58 999.3
20260505200037 70 209 13.0 33.0 0.00 0.11 0.11 56 998.1
20260505194536 70 238 11.0 29.0 0.00 0.11 0.11 56 998.1
20260505193035 71 195 8.0 21.0 0.00 0.11 0.11 56 997.7
20260505191533 71 169 10.0 19.0 0.00 0.11 0.11 58 997.9
20260505190036 69 183 7.0 20.0 0.00 0.11 0.11 61 998.1
20260505184532 69 223 8.0 18.0 0.00 0.11 0.11 62 998.2
20260505183053 70 218 8.0 18.0 0.00 0.11 0.11 57 998.2
20260505181535 69 206 7.0 17.0 0.00 0.11 0.11 60 998.4
20260505180035 68 155 5.0 20.0 0.00 0.11 0.11 63 998.6
20260505174532 66 218 3.0 11.0 0.00 0.11 0.11 70 998.8
20260505173040 63 192 3.0 8.0 0.00 0.11 0.11 76 998.9
20260505171544 61 271 2.0 6.0 0.00 0.11 0.11 81 999.0
20260505170037 58 235 0.0 2.0 0.00 0.11 0.11 85 999.4
20260505164531 57 202 1.0 4.0 0.02 0.11 0.11 84 999.9
20260505163030 56 259 2.0 5.0 0.03 0.11 0.11 84 1000.2
20260505161536 56 258 0.0 3.0 0.11 0.11 0.11 86 1000.2
20260505153036 57 130 1.0 7.0 0.07 0.07 0.07 80 1000.5
20260505151537 60 213 6.0 15.0 0.00 0.00 0.00 73 1001.1
20260505124539 58 240 3.0 8.0 0.00 0.23 0.00 64 1000.8
20260505123035 52 220 2.0 6.0 0.00 0.23 0.00 75 1000.8
20260505121537 49 0 0.0 0.0 0.00 0.23 0.00 83 1000.8
20260505120056 47 0 0.0 0.0 0.00 0.23 0.00 85 1001.0
20260505114537 45 0 0.0 0.0 0.00 0.26 0.00 86 1001.0
20260505113040 44 0 0.0 0.0 0.00 0.26 0.00 88 1001.3
20260505111531 43 0 0.0 0.0 0.00 0.26 0.00 90 1001.3
20260505101537 40 0 0.0 0.0 0.00 0.26 0.00 90 1001.2
20260505100030 40 0 0.0 0.0 0.00 0.26 0.00 89 1001.2
20260505094536 40 0 0.0 0.0 0.00 0.26 0.00 89 1001.3
20260505093040 40 0 0.0 0.0 0.00 0.26 0.00 89 1001.5
20260505091530 40 0 0.0 1.0 0.00 0.26 0.00 88 1001.3
20260505090043 41 0 0.0 2.0 0.00 0.26 0.00 88 1001.5
20260505084536 41 0 0.0 2.0 0.00 0.26 0.00 87 1001.5
20260505083034 42 0 1.0 2.0 0.00 0.26 0.00 88 1001.5
20260505081539 42 0 0.0 2.0 0.00 0.26 0.00 87 1001.8
20260505080038 42 80 0.0 2.0 0.00 0.26 0.00 87 1001.7
20260505074536 42 36 1.0 2.0 0.00 0.26 0.00 87 1001.8
20260505073052 42 63 0.0 2.0 0.00 0.26 0.00 86 1001.8
20260505071530 43 0 0.0 2.0 0.00 0.26 0.00 86 1001.9
20260505070034 43 0 0.0 2.0 0.00 0.26 0.00 86 1001.9
20260505064542 44 67 0.0 3.0 0.00 0.26 0.00 85 1002.1
20260505063037 44 39 2.0 3.0 0.00 0.26 0.00 85 1002.2
20260505061547 44 360 0.0 2.0 0.00 0.26 0.00 85 1002.2
20260505060035 44 67 1.0 4.0 0.00 0.26 0.00 85 1002.4
20260505054558 44 49 1.0 2.0 0.00 0.26 0.00 84 1002.5
20260505053036 45 18 0.0 4.0 0.00 0.26 0.00 84 1002.6
20260505051534 45 84 2.0 4.0 0.00 0.26 0.00 83 1002.7
20260505041534 47 61 1.0 3.0 0.00 0.26 0.00 83 1003.3
20260505040035 47 78 2.0 5.0 0.00 0.26 0.00 82 1003.2
20260505034530 48 71 2.0 4.0 0.00 0.26 0.26 81 1003.4
20260505033030 48 47 1.0 3.0 0.00 0.26 0.26 81 1003.4
20260505031543 49 0 1.0 5.0 0.00 0.26 0.26 80 1003.6
20260505030035 49 69 1.0 4.0 0.00 0.26 0.26 80 1003.4
20260505024538 50 65 1.0 3.0 0.00 0.26 0.26 79 1003.7
20260505023035 50 63 1.0 3.0 0.00 0.26 0.26 78 1004.1
20260505021536 50 43 0.0 3.0 0.00 0.26 0.26 77 1004.4
20260505020035 51 63 1.0 3.0 0.00 0.26 0.26 76 1004.3
20260505014537 51 74 1.0 3.0 0.00 0.26 0.26 75 1004.2
20260505013034 51 59 0.0 2.0 0.00 0.26 0.26 74 1004.4
20260505011537 51 0 1.0 3.0 0.00 0.26 0.26 73 1004.4
20260505010030 52 61 1.0 3.0 0.00 0.26 0.26 72 1004.5
20260505004545 52 60 1.0 2.0 0.00 0.26 0.26 70 1004.5